Location: Arbon
(43.0005°N, 0.7472°E)
Time: 02:26:02
(UTC+00:00)

Cosmos 1655 Rocket - Pass Details

Date: 07 August 2020
Orbit: 969 x 1007 km, 83.0° (Epoch: 19 September)

Event Time Altitude Azimuth Distance (km) Brightness Sun altitude
Rises 02:32:19 0° 350° (N) 3,700 7.6 -21.5°
Reaches altitude 10° 02:34:51 10° 349° (NNW) 2,743 6.9 -21.2°
Maximum altitude 02:41:06 73° 266° (W) 1,019 3.9 -20.5°
Enters shadow 02:44:30 28° 187° (S) 1,718 4.8 -20.0°
